Find Local Weather

World > North America > United States > Montana

Columbia Falls, Montana Regional Weather

Lat: 48.37N, Lon: 114.18W
Wx Zone: MTZ003
Feedback
Expires:201810190000;;391129
ASUS45 KTFX 182310
RWRMT 
MONTANA REGIONAL WEATHER ROUNDUP
NATIONAL WEATHER SERVICE GREAT FALLS MT
500 PM MDT THU OCT 18 2018

NOTE: "FAIR" INDICATES FEW OR NO CLOUDS BELOW 12000 FEET WITH NO
SIGNIFICANT WEATHER AND/OR OBSTRUCTIONS TO VISIBILITY.


MTZ001>007-043-190000-
WEST OF THE DIVIDE
  
CITY           SKY/WX    TMP DP  RH WIND       PRES   REMARKS
KALISPELL      FAIR      58  35  42 S5        30.16R                  
MISSOULA       FAIR      62  34  35 CALM      30.14F                  
BUTTE          FAIR      64  23  21 NW13      30.17S                  
MULLAN PASS    FAIR      50  28  42 NW5       30.24F                  
ANACONDA         N/A     59  27  29 N9        30.17R                  
DEER LODGE       N/A     63  28  27 NW8       30.18F                  
LIBBY            N/A     59  34  38 CALM      30.14S                  
RONAN            N/A     61  37  41 CALM      30.15S                  
$$


SKY/WX - Weather  TMP - Temperature  DP - Dew Point  RH - Relative Humidity
WIND - Wind Direction/Speed PRES - Barometric Pressure